Shirley, NY

9:12 AM EDT on July 28, 2017 (GMT -0400)
Brookhaven

Weather History for KHWV - November, 2013

Change the Weather History Date:

Friday, November 8, 2013

  Actual Average (KISP) Record (KISP)
Temperature  
Mean Temperature 42 °F -  
Max Temperature 50 °F 52 °F 70 °F (2011)
Min Temperature 34 °F 36 °F 24 °F (1993)
Degree Days  
Heating Degree Days 23    
Moisture  
Dew Point 28 °F    
Average Humidity 58    
Maximum Humidity 85    
Minimum Humidity 38    
Precipitation  
Precipitation 0.00 in - - ()
Sea Level Pressure  
Sea Level Pressure 30.04 in    
Wind  
Wind Speed 9 mph (WNW)    
Max Wind Speed 20 mph    
Max Gust Speed 32 mph    
Visibility 10 miles    
Events      
Averages and records for this station are not official NWS values.
T = Trace of Precipitation, MM = Missing Value Source: NWS Daily Summary

Daily Weather History Graph

Daily Weather History Graph

Search for Another Location

Airport or City:

Trip Planner

Search our weather history database for the weather conditions in past years. The results will help you decide how hot, cold, wet, or windy it might be!

Date:

Astronomy

Nov. 08, 2013 Rise Set
Actual Time 6:30 AM EST 4:39 PM EST
Civil Twilight 6:01 AM EST 5:08 PM EST
Nautical Twilight 5:28 AM EST 5:41 PM EST
Astronomical Twilight 4:56 AM EST 6:13 PM EST
Moon 11:24 AM EST (11/8) 9:57 PM EST (11/8)
Length of Visible Light 11h 06m
Length of Day
10h 09m
Waxing Crescent, 33% of the Moon is Illuminated
Nov 8
Waxing Crescent
Nov 10
First Quarter
Nov 17
Full
Nov 25
Last Quarter
Dec 2
New

Hourly Weather History & Observations

Time (EST) Temp. Windchill Dew Point Humidity Pressure Visibility Wind Dir Wind Speed Gust Speed Precip Events Conditions
12:56 AM 35.1 °F 32.2 °F 30.0 °F 82% 29.92 in 10.0 mi WNW 3.5 mph - N/A   Clear
1:56 AM 35.1 °F 30.1 °F 30.9 °F 85% 29.93 in 10.0 mi West 5.8 mph - N/A   Clear
2:56 AM 37.0 °F 33.3 °F 30.9 °F 79% 29.94 in 10.0 mi West 4.6 mph - N/A   Clear
3:56 AM 35.1 °F 31.0 °F 30.0 °F 82% 29.95 in 10.0 mi West 4.6 mph - N/A   Clear
4:56 AM 34.0 °F 31.0 °F 30.0 °F 85% 29.96 in 10.0 mi West 3.5 mph - N/A   Clear
5:56 AM 37.9 °F 33.5 °F 32.0 °F 79% 29.98 in 10.0 mi West 5.8 mph - N/A   Overcast
6:56 AM 39.9 °F 35.8 °F 32.0 °F 73% 29.99 in 10.0 mi West 5.8 mph - N/A   Overcast
7:56 AM 43.0 °F 37.7 °F 32.0 °F 65% 30.01 in 10.0 mi West 9.2 mph - N/A   Overcast
8:56 AM 46.0 °F 39.6 °F 32.0 °F 58% 30.02 in 10.0 mi WNW 15.0 mph 23.0 mph N/A   Clear
9:56 AM 46.0 °F 39.3 °F 30.0 °F 54% 30.01 in 10.0 mi WNW 16.1 mph 24.2 mph N/A   Clear
10:56 AM 46.9 °F - 28.9 °F 50% 30.01 in 10.0 mi WNW 10.4 mph 23.0 mph N/A   Partly Cloudy
11:56 AM 48.9 °F - 28.0 °F 44% 29.99 in 10.0 mi WNW 15.0 mph 23.0 mph N/A   Partly Cloudy
12:56 PM 50.0 °F - 27.0 °F 41% 29.99 in 10.0 mi West 18.4 mph 26.5 mph N/A   Scattered Clouds
1:56 PM 50.0 °F - 25.0 °F 38% 30.00 in 10.0 mi WNW 17.3 mph 28.8 mph N/A   Scattered Clouds
2:56 PM 46.9 °F - 23.0 °F 39% 30.03 in 10.0 mi WNW 19.6 mph 32.2 mph N/A   Mostly Cloudy
3:56 PM 48.0 °F - 24.1 °F 39% 30.04 in 10.0 mi NW 10.4 mph 19.6 mph N/A   Partly Cloudy
4:56 PM 46.0 °F 39.3 °F 24.1 °F 42% 30.07 in 10.0 mi NW 16.1 mph 24.2 mph N/A   Mostly Cloudy
5:56 PM 45.0 °F 37.4 °F 24.1 °F 44% 30.10 in 10.0 mi WNW 18.4 mph 31.1 mph N/A   Scattered Clouds
6:56 PM 43.0 °F 36.0 °F 25.0 °F 49% 30.13 in 10.0 mi NW 13.8 mph - N/A   Clear
7:56 PM 43.0 °F 36.4 °F 25.0 °F 49% 30.14 in 10.0 mi NW 12.7 mph 19.6 mph N/A   Partly Cloudy
8:56 PM 43.0 °F 36.4 °F 23.0 °F 45% 30.17 in 10.0 mi NW 12.7 mph 24.2 mph N/A   Clear
9:56 PM 42.1 °F 35.7 °F 24.1 °F 49% 30.18 in 10.0 mi NW 11.5 mph - N/A   Mostly Cloudy
10:56 PM 39.9 °F 35.1 °F 25.0 °F 55% 30.19 in 10.0 mi WNW 6.9 mph - N/A   Partly Cloudy
11:56 PM 39.0 °F 34.8 °F 25.0 °F 57% 30.20 in 10.0 mi West 5.8 mph - N/A   Partly Cloudy